Regional Weather Roundup
Issued by NWS

Home | Current Version | Previous Version | Graphics & Text | Print | Product List | Glossary On
Versions: 1 2 3 4 5 6 7 8 9 10 11 12 13 14 15 16 17 18 19 20 21 22 23 24 25 26 27 28 29 30 31 32 33 34 35 36 37 38 39 40 41 42 43 44 45 46 47 48 49 50
000
ASUS43 KBIS 311102
RWRND

NORTH DAKOTA REGIONAL WEATHER ROUNDUP
NATIONAL WEATHER SERVICE BISMARCK ND
600 AM CDT FRI JUL 31 2015

NOTE: "FAIR" INDICATES FEW OR NO CLOUDS BELOW 12,000 FEET WITH NO
SIGNIFICANT WEATHER AND/OR OBSTRUCTIONS TO VISIBILITY.


NDZ001>003-009>011-017-311200-
NORTHWEST NORTH DAKOTA

CITY           SKY/WX    TMP DP  RH WIND       PRES   REMARKS
WILLISTON      CLEAR     54  50  86 SW3       30.16S
MINOT          CLEAR     56  49  77 SW9       30.13S
MINOT AFB      CLEAR     51  50  99 W7        30.13R
$$

NDZ018>021-031>035-040>046-311200-
SOUTHWEST NORTH DAKOTA

CITY           SKY/WX    TMP DP  RH WIND       PRES   REMARKS
BISMARCK       CLEAR     55  51  86 SW3       30.18S
DICKINSON      CLEAR     52  46  80 S10       30.18S
GARRISON         N/A     56  53  90 CALM      30.15S
HETTINGER ARPT CLEAR     50  45  83 NE5       30.22S
$$

NDZ004>008-012>016-024-026-027-054-311200-
NORTHEAST NORTH DAKOTA

CITY           SKY/WX    TMP DP  RH WIND       PRES   REMARKS
GRAND FORKS    CLEAR     58  52  80 W8        30.03S
GRND FRKS AFB  CLEAR     58  52  79 W8        30.04S
DEVILS LAKE    CLEAR     59  48  67 W10       30.08S
$$

NDZ022-023-025-028>030-036>039-047>053-311200-
SOUTHEAST NORTH DAKOTA

CITY           SKY/WX    TMP DP  RH WIND       PRES   REMARKS
FARGO          CLEAR     56  51  84 W9        30.07S
JAMESTOWN      PTCLDY    58  50  75 W8        30.12S
$$




USA.gov is the U.S. government's official web portal to all federal, state and local government web resources and services.